Fitchburg, MA

3:31 AM EDT on April 26, 2017 (GMT -0400)
Fitchburg Municipal

Weather History for KFIT - August, 2014

Change the Weather History Date:

Friday, August 22, 2014

  Actual Average (KORH) Record (KORH)
Temperature  
Mean Temperature 66 °F -  
Max Temperature 70 °F 75 °F 93 °F (1916)
Min Temperature 61 °F 56 °F 42 °F (1894)
Growing Degree Days 16 (Base 50)    
Moisture  
Dew Point 60 °F    
Average Humidity 85    
Maximum Humidity 90    
Minimum Humidity 71    
Precipitation  
Precipitation 0.06 in - - ()
Sea Level Pressure  
Sea Level Pressure 30.12 in    
Wind  
Wind Speed 2 mph (NNE)    
Max Wind Speed 7 mph    
Max Gust Speed -    
Visibility 9 miles    
Events Rain    
Averages and records for this station are not official NWS values.
T = Trace of Precipitation, MM = Missing Value Source: NWS Daily Summary

Daily Weather History Graph

Daily Weather History Graph

Search for Another Location

Airport or City:

Trip Planner

Search our weather history database for the weather conditions in past years. The results will help you decide how hot, cold, wet, or windy it might be!

Date:

Astronomy

Aug. 22, 2014 Rise Set
Actual Time 6:01 AM EDT 7:37 PM EDT
Civil Twilight 5:31 AM EDT 8:07 PM EDT
Nautical Twilight 4:55 AM EDT 8:43 PM EDT
Astronomical Twilight 4:16 AM EDT 9:21 PM EDT
Moon 3:19 AM EDT (8/22) 5:45 PM EDT (8/22)
Length of Visible Light 14h 35m
Length of Day
13h 36m
Waning Crescent, 8% of the Moon is Illuminated
Aug 22
Waning Crescent
Aug 25
New
Sep 2
First Quarter
Sep 8
Full
Sep 15
Last Quarter

Hourly Weather History & Observations

Time (EDT) Temp. Dew Point Humidity Pressure Visibility Wind Dir Wind Speed Gust Speed Precip Events Conditions
12:17 AM 61.0 °F 57.9 °F 90% 30.12 in 10.0 mi Calm Calm - 0.00 in Rain Light Rain
12:52 AM 61.0 °F 57.9 °F 90% 30.11 in 8.0 mi North 3.5 mph - 0.01 in Rain Light Rain
1:23 AM 61.0 °F 57.9 °F 90% 30.11 in 10.0 mi Calm Calm - 0.02 in   Overcast
1:52 AM 61.0 °F 57.9 °F 90% 30.11 in 10.0 mi Calm Calm - 0.02 in   Overcast
2:52 AM 61.0 °F 57.9 °F 90% 30.11 in 10.0 mi Calm Calm - N/A   Overcast
3:02 AM 61.0 °F 57.9 °F 90% 30.10 in 10.0 mi Calm Calm - N/A   Overcast
3:26 AM 61.0 °F 57.9 °F 90% 30.10 in 10.0 mi WNW 3.5 mph - N/A   Overcast
3:52 AM 61.0 °F 57.9 °F 90% 30.10 in 10.0 mi NNW 3.5 mph - N/A   Overcast
4:27 AM 61.0 °F 57.9 °F 90% 30.11 in 10.0 mi NNW 3.5 mph - N/A   Overcast
4:37 AM 61.0 °F 57.9 °F 90% 30.11 in 10.0 mi NW 3.5 mph - 0.00 in Rain Light Rain
5:52 AM 61.0 °F 57.9 °F 90% 30.12 in 10.0 mi Calm Calm - N/A   Overcast
6:21 AM 61.0 °F 57.9 °F 90% 30.12 in 10.0 mi Calm Calm - N/A   Overcast
6:41 AM 61.0 °F 57.9 °F 90% 30.12 in 10.0 mi NNW 4.6 mph - N/A   Overcast
6:52 AM 61.0 °F 57.9 °F 90% 30.12 in 10.0 mi NNW 3.5 mph - N/A   Overcast
8:52 AM 63.0 °F 57.9 °F 84% 30.12 in 10.0 mi NNE 4.6 mph - N/A   Overcast
9:03 AM 64.0 °F 57.9 °F 80% 30.12 in 10.0 mi NE 5.8 mph - N/A   Overcast
9:52 AM 64.9 °F 59.0 °F 81% 30.12 in 10.0 mi NNE 5.8 mph - N/A   Overcast
10:05 AM 64.0 °F 59.0 °F 84% 30.12 in 10.0 mi NE 4.6 mph - N/A   Overcast
10:52 AM 64.9 °F 60.1 °F 84% 30.12 in 10.0 mi NE 3.5 mph - N/A   Overcast
11:52 AM 66.0 °F 60.1 °F 81% 30.13 in 10.0 mi East 6.9 mph - N/A   Overcast
12:22 PM 68.0 °F 61.0 °F 78% 30.12 in 10.0 mi Calm Calm - N/A   Overcast
12:47 PM 69.8 °F 60.8 °F 73% 30.12 in 10.0 mi NNE 3.5 mph - N/A   Overcast
12:52 PM 70.0 °F 60.1 °F 71% 30.12 in 10.0 mi NNW 6.9 mph - N/A   Overcast
1:09 PM 70.0 °F 61.0 °F 73% 30.12 in 10.0 mi NNW 4.6 mph - N/A   Overcast
1:52 PM 70.0 °F 61.0 °F 73% 30.12 in 10.0 mi ENE 3.5 mph - N/A   Overcast
2:37 PM 66.9 °F 63.0 °F 87% 30.11 in 2.5 mi North 4.6 mph - 0.02 in Rain Light Rain
2:52 PM 66.9 °F 63.0 °F 87% 30.11 in 2.5 mi ENE 4.6 mph - 0.03 in Rain Light Rain
3:00 PM 66.9 °F 63.0 °F 87% 30.11 in 3.0 mi Variable 3.5 mph - 0.00 in Rain Light Rain
3:18 PM 68.0 °F 63.0 °F 84% 30.11 in 10.0 mi NE 4.6 mph - 0.00 in   Overcast
3:52 PM 68.0 °F 62.1 °F 81% 30.10 in 10.0 mi Variable 4.6 mph - 0.00 in   Overcast
5:52 PM 68.0 °F 61.0 °F 78% 30.11 in 10.0 mi NNE 3.5 mph - N/A   Overcast
6:52 PM 68.0 °F 61.0 °F 78% 30.12 in 10.0 mi NNE 3.5 mph - N/A   Overcast
7:52 PM 66.9 °F 60.1 °F 79% 30.12 in 10.0 mi NNE 3.5 mph - N/A   Overcast
8:52 PM 64.9 °F 61.0 °F 87% 30.13 in 10.0 mi Calm Calm - N/A   Overcast
9:03 PM 64.9 °F 61.0 °F 87% 30.13 in 10.0 mi NNW 3.5 mph - N/A   Overcast
9:52 PM 64.9 °F 60.1 °F 84% 30.13 in 10.0 mi Calm Calm - N/A   Overcast
10:52 PM 64.0 °F 60.1 °F 87% 30.14 in 10.0 mi ENE 4.6 mph - N/A   Overcast
11:52 PM 64.0 °F 59.0 °F 84% 30.14 in 10.0 mi Variable 3.5 mph - N/A   Overcast